Date,TemperatureHighF,TemperatureAvgF,TemperatureLowF,DewpointHighF,DewpointAvgF,DewpointLowF,HumidityHigh,HumidityAvg,HumidityLow,PressureMaxIn,PressureMinIn,WindSpeedMaxMPH,WindSpeedAvgMPH,GustSpeedMaxMPH,PrecipitationSumIn
2013-2-9,-200,0,200,-100,-100,-100,0,0,100,0.00,40.00,0,-999,0,0.00
2013-2-10,30,30,30,30,27,-100,98,96,98,29.92,29.92,11,-12,0,0.00
2013-2-11,41,32,40,40,12,-100,98,78,98,29.44,29.43,1,-200,0,1.07
2013-2-12,46,39,33,46,39,33,98,98,98,29.84,29.44,11,2,0,0.00
2013-2-13,46,35,26,46,34,26,98,98,98,29.85,29.69,9,1,0,0.00
2013-2-14,34,31,32,33,24,-100,98,92,98,30.01,29.71,5,-60,0,0.00
2013-2-15,51,39,27,50,38,27,98,98,98,30.02,29.91,3,0,0,0.00
2013-2-16,35,32,31,34,30,-100,98,96,98,29.96,29.73,7,-19,0,0.02
2013-2-17,32,22,17,31,20,-100,98,97,98,29.73,29.42,13,-8,0,0.00
2013-2-18,31,22,14,31,22,14,98,98,98,30.21,29.71,13,4,0,0.00
2013-2-19,48,37,21,48,36,21,98,98,98,30.22,29.61,5,1,0,0.48
2013-2-20,43,33,26,42,33,25,98,98,98,29.84,29.57,10,4,0,0.00
2013-2-21,28,26,24,27,26,24,98,98,98,30.22,29.83,11,4,0,0.00
2013-2-22,39,32,23,38,31,22,98,98,98,30.46,30.23,11,3,0,0.00
2013-2-23,39,35,31,39,35,31,98,98,98,30.38,29.94,6,2,0,0.32
2013-2-24,38,35,31,38,34,30,98,98,98,29.93,29.71,10,4,0,0.70
2013-2-25,41,35,29,40,35,29,98,98,98,30.26,29.91,6,2,0,0.15
2013-2-26,43,38,28,43,37,28,98,98,98,30.35,30.14,9,2,0,0.00
2013-2-27,41,40,39,41,40,38,98,98,98,30.14,29.51,16,4,0,2.49
2013-2-28,47,39,34,46,39,34,98,98,98,29.63,29.51,5,1,0,0.00
2013-3-1,42,38,34,41,38,34,98,98,98,29.69,29.52,7,3,0,0.00
2013-3-2,43,38,31,42,37,30,98,98,98,29.69,29.64,8,2,0,0.00
2013-3-3,44,36,32,43,36,32,98,98,98,29.67,29.58,9,3,0,0.00
2013-3-4,40,35,30,40,34,30,98,98,98,29.77,29.61,15,6,0,0.00
2013-3-5,45,37,30,44,36,30,98,98,98,30.12,29.78,9,4,0,0.00
2013-3-6,40,37,35,40,37,35,98,98,98,30.17,30.09,21,4,0,0.17
2013-3-7,36,33,31,36,32,30,98,98,98,30.11,30.02,14,6,0,0.30
2013-3-8,41,34,30,40,34,29,98,98,98,30.17,29.96,14,6,0,0.61
2013-3-9,42,36,29,41,35,28,98,98,98,30.38,30.17,9,4,0,0.09
2013-3-10,41,34,28,40,34,27,98,98,98,30.44,30.33,6,2,0,0.00
2013-3-11,52,42,34,52,42,34,98,98,98,30.34,30.16,3,1,0,0.00
2013-3-12,56,49,40,55,48,40,98,98,98,30.17,29.72,4,1,0,0.27
2013-3-13,53,45,34,52,44,34,98,98,98,29.78,29.68,10,3,0,0.01
2013-3-14,39,32,23,38,32,22,98,98,98,29.83,29.69,10,3,0,0.00
2013-3-15,42,30,19,41,30,19,98,98,98,29.87,29.62,15,4,0,0.00
2013-3-16,40,34,25,40,34,24,98,98,98,29.88,29.66,7,2,0,0.00
2013-3-17,37,31,24,37,30,23,98,98,98,30.33,29.89,11,3,0,0.00
2013-3-18,35,28,18,34,27,18,98,98,98,30.48,30.28,6,2,0,0.00
2013-3-19,43,34,29,42,34,29,98,98,98,30.27,29.59,15,5,0,1.50
2013-3-20,39,33,27,39,33,26,98,98,98,29.79,29.68,8,3,0,0.05
2013-5-26,59,56,50,58,56,50,98,98,98,30.02,29.80,10,4,0,0.00
2013-7-28,71,71,71,70,70,70,98,98,98,29.99,29.98,0,0,0,0.00
2013-7-29,71,71,71,70,70,70,98,98,98,29.98,29.98,0,0,0,0.00
2013-8-1,72,72,72,71,71,71,98,98,98,29.91,29.90,2,1,0,0.00
2013-8-2,88,75,66,87,75,66,98,98,98,29.90,29.78,6,2,0,0.52